This is the latest recevied weather packets stored in our database for station/object DB0NU-15. If no packets are shown the sender has not sent any weather packets the latest 10 day(s).
| Time | Temp. | Humidity | Pressure | Rain* | Wind** | Luminosity | Snow |
|---|---|---|---|---|---|---|---|
| 1777156867 | 10.56° C | 44% | 1019.3 hPa | 0 mm | - | - | - |
| 1777156264 | 10.56° C | 43% | 1019.3 hPa | 0 mm | - | - | - |
| 1777155660 | 10.56° C | 43% | 1019.1 hPa | 0 mm | - | - | - |
| 1777155057 | 10.56° C | 41% | 1019 hPa | 0 mm | - | - | - |
| 1777154454 | 11.11° C | 39% | 1018.9 hPa | 0 mm | - | - | - |
| 1777153247 | 11.11° C | 38% | 1018.8 hPa | 0 mm | - | - | - |
| 1777152644 | 11.67° C | 37% | 1018.6 hPa | 0 mm | - | - | - |
| 1777152041 | 11.67° C | 37% | 1018.6 hPa | 0 mm | - | - | - |
| 1777151437 | 11.67° C | 36% | 1018.6 hPa | 0 mm | - | - | - |
| 1777150834 | 11.67° C | 37% | 1018.4 hPa | 0 mm | - | - | - |
| 1777150230 | 12.22° C | 38% | 1018.3 hPa | 0 mm | - | - | - |
| 1777149627 | 12.22° C | 38% | 1018.3 hPa | 0 mm | - | - | - |
| 1777149024 | 12.78° C | 40% | 1018.2 hPa | 0 mm | - | - | - |
| 1777148420 | 12.78° C | 45% | 1018.1 hPa | 0 mm | - | - | - |
| 1777147817 | 12.78° C | 44% | 1018.2 hPa | 0 mm | - | - | - |
| 1777146670 | 13.89° C | 42% | 1018.1 hPa | 0 mm | - | - | - |
| 1777146067 | 13.89° C | 41% | 1017.9 hPa | 0 mm | - | - | - |
| 1777145464 | 14.44° C | 40% | 1017.9 hPa | 0 mm | - | - | - |
| 1777144257 | 14.44° C | 39% | 1017.7 hPa | 0 mm | - | - | - |
| 1777143050 | 14.44° C | 38% | 1017.5 hPa | 0 mm | - | - | - |
| 1777142447 | 15° C | 38% | 1017.4 hPa | 0 mm | - | - | - |
| 1777141240 | 15.56° C | 36% | 1017.2 hPa | 0 mm | - | - | - |
| 1777140637 | 15.56° C | 35% | 1017.2 hPa | 0 mm | - | - | - |
| 1777140033 | 15.56° C | 35% | 1017.1 hPa | 0 mm | - | - | - |
| 1777139429 | 16.11° C | 33% | 1017 hPa | 0 mm | - | - | - |
* Rain latest hour (hover to see other rain measurements)
** Current wind speed in m/s (hover to see current wind gust speed)